カタログに戻る

DELTA 1 DEB *

運用中LEO
NORAD 9703·DEBRIS·🇺🇸 United States

打ち上げ Nov 6, 1973 から Vandenberg Space Force Base

Loading…

次のパス (今後24時間)

TLE

最新Source: Space-Track

元期: Sep 14, 2026, 12:08 UTC

1 09703U 73086GB  26257.50576705  .00000046  00000-0  13984-3 0  9998
2 09703  65.7200  84.5713 0130914 202.8255 184.9629 13.67801486596228

AllMySatでDELTA 1 DEB *をリアルタイム追跡

Download on the App Store